Location: Cisewo
(53.3833°N, 14.9000°E)
Time: 11:32:24
(UTC+00:00)

Cosmos 405 Rocket - Pass Details

Date: 18 April 2021
Orbit: 489 x 553 km, 81.3° (Epoch: 14 May)

Event Time Altitude Azimuth Distance (km) Brightness Sun altitude
Rises 19:27:28 0° 345° (NNW) 2,741 7.3 -11.4°
Reaches altitude 10° 19:29:40 10° 344° (NNW) 1,837 6.3 -11.6°
Maximum altitude 19:33:43 77° 259° (W) 565 2.9 -12.1°
Enters shadow 19:37:34 11° 174° (S) 1,752 5.0 -12.6°
